Location: Franzen
(48.6167°N, 15.3833°E)
Time: 05:48:16
(UTC+00:00)

Transit 2A - Pass Details

Date: 03 August 2021
Orbit: 594 x 964 km, 66.7° (Epoch: 24 September)

Event Time Altitude Azimuth Distance (km) Brightness Sun altitude
Rises 05:48:23 0° 235° (SW) 2,854 8.5 20.1°
Reaches altitude 10° 05:50:40 10° 243° (WSW) 1,979 7.7 20.5°
Maximum altitude 05:54:53 42° 314° (NW) 933 6.4 21.2°
Drops below altitude 10° 05:59:28 10° 26° (NNE) 2,150 8.8 22.0°
Sets 06:02:02 0° 33° (NNE) 3,132 9.7 22.4°
